GSAT0217 (PRN E27)

Last updated on Oct. 24, 2020, 5:55 a.m. UTC

1 43057U 17079C   20296.92675838 -.00000009  00000-0  00000+0 0  9999
2 43057  56.1717 278.2971 0005577 282.6633  77.2588  1.70473855 17812
UTC
Height (km)
Latitude
Longitude
Inclination
Orbital Period
UTC large
Height (km)
Speed (km/s)
/
Latitude / Longitude
Inclination (degrees)
Orbital Period (minutes)
Azimuth
Elevation
Range (km)
Doppler Factor
iOS Compass Heading
iOS Angle

Next 30 passes for location: Hong Kong

Rise time Rise Azimuth (degrees) Set time Set Azimuth (degrees) Duration Max altitude (degrees)

No matching passes for this satellites